Skip Page Navigation
NASA JPL Caltech
NASA Logo - Jet Propulsion Laboratory + View the NASA Portal
+ Center for Near-Earth Object Studies
JPL Home Earth Solar System Stars & Galaxies Technology
JPL Solar System Dynamics
BODIES ORBITS EPHEMERIDES TOOLS PHYSICAL DATA DISCOVERY FAQ SITE MAP
JPL Small-Body Database Browser
Search: [ help ]  
1943 Anteros (1973 EC)
Classification: Amor [NEO]          SPK-ID: 2001943
Ephemeris | Orbit Diagram | Orbital Elements | Mission Design | Physical Parameters | Discovery Circumstances | Close-Approach Data ]

[ show orbit diagram ]
Orbital Elements at Epoch 2459200.5 (2020-Dec-17.0) TDB
Reference: JPL 549 (heliocentric ecliptic J2000)
 Element Value Uncertainty (1-sigma)   Units 
e .2559038074769844 1.1027e-08  
a 1.430558085299324 9.9985e-10 au
q 1.064472824454243 1.5782e-08 au
i 8.705521024867247 3.4062e-07 deg
node 246.3282486224469 3.2185e-06 deg
peri 338.3691838075071 4.1874e-06 deg
M 303.4484451961868 2.3494e-06 deg
tp 2459298.674505002482
(2021-Mar-25.17450500)
4.1114e-06 TDB
period 624.9664031962257
1.71
6.5521e-07
1.794e-09
d
yr
n .5760309644788505 6.039e-10 deg/d
Q 1.796643346144406 1.2557e-09 au
  Orbit Determination Parameters
   # obs. used (total)      3754  
   data-arc span      17583 days (48.14 yr)  
   first obs. used      1973-03-10  
   last obs. used      2021-04-30  
   planetary ephem.      DE441  
   SB-pert. ephem.      SB441-N16  
   condition code      0  
   norm. resid. RMS      .41531  
   source      ORB  
   producer      Otto Matic  
   solution date      2021-May-01 06:22:20  

Additional Information
 Earth MOID = .0611846 au 
 Jupiter MOID = 3.19376 au 
 T_jup = 4.639 
[ show covariance matrix ]

Ephemeris | Orbit Diagram | Orbital Elements | Mission Design | Physical Parameters | Discovery Circumstances | Close-Approach Data ]

Physical Parameter Table
Parameter Symbol Value Units Sigma Reference Notes
absolute magnitude H 15.64   n/a MPCxxxxx  
diameter diameter 2.3 km n/a Hazards due to Comets and Asteroids (1994), Ed. T. Gehrels, pp.540-543  
rotation period rot_per 2.86923 h n/a LCDB (Rev. 2020-October); Warner et al., 2009 Published Reference List:
[Weidenschilling, S.J.; Chapman, C.R.; Davis, D.R.; Greenberg, R.; et al. (1990) Icarus 86, 402-447.]
[Pravec, P.; Wolf, M.; Sarounova, L. (1998) Icarus 136, 124-153.]
[Koehn, B.W.; Bowell, E.L.G.; Skiff, B.A.; Sanborn, J.J.; et al. (2014) Minor Planet Bull. 41, 286-300.]
[Warner, B.D. (2014) Minor Planet Bull. 41, 157-168.]
[Warner, B.D. (2015) Minor Planet Bull. 42, 41-53.]
[Warner, B.D.; Benishek, V.; Harris, A.W. (2017) Minor Planet Bull. 44, 186-188.]
[Skiff, B.A.; McLelland, K.P.; Sanborn, J.; Pravec, P.; Koehn, B.W. (2019). Minor Planet Bull. 46, 458-503.]
[Warner, B.D.; Stephens, R.D. (2019) Minor Planet Bull. 46, 144-152.]
geometric albedo albedo 0.17   n/a Hazards due to Comets and Asteroids (1994), Ed. T. Gehrels, pp.540-543  
B-V BV 0.841   0.036 EAR-A-5-DDR-UBV-MEAN-VALUES-V1.2 #obs=2; phase (min.=15.92, mean=16.51, max.=17.10) deg.
U-B UB 0.444   0.061 EAR-A-5-DDR-UBV-MEAN-VALUES-V1.2 #obs=2; phase (min.=15.92, mean=16.51, max.=17.10) deg.
Tholen spectral type spec_T S   n/a EAR-A-5-DDR-TAXONOMY-V4.0 used 7 color indices; used ground-based radiometric albedo
SMASSII spectral type spec_B L   n/a Binzel et al. (2001) Icarus 151, 139-149  

1943 Anteros (1973 EC)          Discovered 1973-Mar-13 by Gibson, J. at El Leoncito
Reference: DISCOVERY.DBLast Updated: 2003-08-29

[ show close-approach data ]
Ephemeris | Orbit Diagram | Orbital Elements | Mission Design | Physical Parameters | Discovery Circumstances | Close-Approach Data ]
ABOUT SSD CREDITS/AWARDS PRIVACY/COPYRIGHT GLOSSARY LINKS
FirstGov 2021-May-10 23:31 UT
(server date/time)  
NASA Home Page
Site Manager:   Ryan S. Park
Webmaster  Alan B. Chamberlin